Regional Weather Roundup
Issued by NWS

Home | Current Version | Previous Version | Graphics & Text | Print | Product List | Glossary On
Versions: 1 2 3 4 5 6 7 8 9 10 11 12 13 14 15 16 17 18 19 20 21 22 23 24 25 26 27 28 29 30 31 32 33 34 35 36 37 38 39 40 41 42 43 44 45 46 47 48 49 50
085
ASUS45 KSLC 120410
RWRUT

UTAH REGIONAL WEATHER ROUNDUP
NATIONAL WEATHER SERVICE SALT LAKE CITY UT
900 PM MST MON DEC 11 2017

UTZ001>011-023>025-120500-

NORTHERN UTAH

CITY           SKY/WX    TMP DP  RH WIND       PRES   REMARKS
BRIGHAM CITY   MOCLDY    24  21  89 CALM      30.61R
HILL AFB       FOG       25  23  95 CALM      30.57S VSB 1/8
LOGAN          FOG       18  15  88 SW5       30.60R VSB 3/4 WCI  11
OGDEN          CLOUDY    26  25  96 SE3       30.58R FOG
SALT LAKE CITY FOG       27  25  92 CALM      30.60R VSB 1/4
TOOELE VALLEY  FOG       25  25 100 CALM      30.60S VSB 1/4
WENDOVER       PTCLDY    22  15  75 CALM      30.59S
HEBER CITY       N/A     19  12  73 CALM      30.53R
WEST JORDAN    CLOUDY   N/A N/A N/A CALM      30.59R VSB 1/4

$$

UTZ011>015-024>027-120500-

CENTRAL/NORTHEAST UTAH

CITY           SKY/WX    TMP DP  RH WIND       PRES   REMARKS
PROVO AIRPORT  PTCLDY    19  16  88 CALM      30.58R
MOAB/CANYONLAN MOCLDY    24   1  36 W5        30.48R WCI  18
DELTA          MOCLDY    25  14  63 CALM      30.55S
PRICE          PTCLDY    27   0  31 CALM      30.47S
ROOSEVELT      CLOUDY    23   9  54 CALM      30.55R
VERNAL         CLOUDY    20   8  60 W6        30.53R WCI  12

$$

UTZ013>016-019>022-027-120500-

SOUTHERN UTAH

CITY           SKY/WX    TMP DP  RH WIND       PRES   REMARKS
BRYCE CANYON   CLEAR     21 -14  20 W8        30.53S WCI  11
CEDAR CITY     PTCLDY    26   5  40 SE5       30.50S WCI  20
MILFORD        PTCLDY    18   9  68 CALM      30.54R
ST GEORGE      CLEAR     45   5  19 CALM      30.42R
HANKSVILLE     MOCLDY    27   1  33 CALM      30.51S
BLANDING         N/A     38  -2  18 CALM      30.49F

$$

REGIONAL REPORTS     COLORADO/ARIZONA

CITY           SKY/WX    TMP DP  RH WIND       PRES   REMARKS
CRAIG, CO      CLOUDY    14   8  77 CALM      30.53R
GRAND JUNCTION CLOUDY    31   2  29 NE5       30.48R WCI  26
RIFLE, CO      CLOUDY    27   3  35 S3        30.50R
MONTROSE, CO   CLOUDY    23   2  40 S7        30.51R WCI  15
CORTEZ, CO     CLOUDY    21   0  39 E9        30.44R WCI  11
COLORADO CITY    N/A     21  -9  25 SE6       30.45S WCI  14
PAGE, AZ       CLEAR     36  15  42 CALM      30.46R HAZE
GRAND CANYON   PTCLDY    24 -17  15 NE6       30.47R WCI  17
KINGMAN, AZ    PTCLDY    36  -3  19 E6        30.35R WCI  31
FLAGSTAFF, AZ  PTCLDY    23  -8  25 CALM      30.46R

$$

REGIONAL REPORTS    NEVADA/IDAHO/WYOMING

CITY           SKY/WX    TMP DP  RH WIND       PRES   REMARKS
LAS VEGAS, NV  CLEAR     49   1  14 SW5       30.33S
ELY, NY        PTCLDY    18  -8  31 S14       30.55R WCI   4
ELKO, NV       MOCLDY    20  16  84 CALM      30.54R
POCATELLO, ID  CLOUDY    19  14  81 CALM      30.57S
BURLEY, ID     CLEAR     21  18  88 W5        30.57R FOG     WCI  15
FORT BRIDGER,    N/A     39   5  24 W10       30.54S WCI  32
EVANSTON, WY   CLOUDY    33  10  38 N7        30.54S WCI  27
ROCK SPRINGS,  CLOUDY    25  12  58 S7        30.50R WCI  17

$$




USA.gov is the U.S. government's official web portal to all federal, state and local government web resources and services.